Weather History for Estherville, IA

Change the Weather History Date:

Thursday, September 6, 2012

  Actual Average Record
Temperature  
Mean Temperature 65 °F 64 °F  
Max Temperature 82 °F 76 °F 95 °F (1960)
Min Temperature 47 °F 53 °F 38 °F (1962)
Degree Days  
Heating Degree Days 0 3  
Month to date heating degree days 0 15  
Since 1 July heating degree days 31 47  
Cooling Degree Days 0 3  
Month to date cooling degree days 37 18  
Year to date cooling degree days 873 558  
Growing Degree Days 15 (Base 50)    
Moisture  
Dew Point 48 °F    
Average Humidity 60    
Maximum Humidity 93    
Minimum Humidity 26    
Precipitation  
Precipitation 0.00 in 0.10 in 0.85 in (1965)
Month to date precipitation 0.00 0.59  
Sea Level Pressure  
Sea Level Pressure 29.92 in    
Wind  
Wind Speed 6 mph (SSE)    
Max Wind Speed 17 mph    
Max Gust Speed 22 mph    
Visibility 10 miles    
Events      
T = Trace of Precipitation, MM = Missing Value Source: NWS Daily Summary

Daily Weather History Graph

Daily Weather History Graph

Search for Another Location

Airport:

Trip Planner

Search our weather history database for the weather conditions in past years. The results will help you decide how hot, cold, wet, or windy it might be!

Date:

Astronomy

Sep. 06, 2012 Rise Set
Actual Time 6:49 AM CDT 7:44 PM CDT
Civil Twilight 6:19 AM CDT 8:13 PM CDT
Nautical Twilight 5:45 AM CDT 8:47 PM CDT
Astronomical Twilight 5:09 AM CDT 9:24 PM CDT
Moon 10:43 PM CDT (9/6) 1:01 PM CDT (9/6)
Length of Visible Light 13h 53m
Length of Day
12h 55m
Waning Gibbous, 67% of the Moon is Illuminated
Sep 6
Waning Gibbous
Sep 8
Last Quarter
Sep 15
New
Sep 22
First Quarter
Sep 29
Full

Hourly Weather History & Observations

Time (CDT) Temp. Dew Point Humidity Pressure Visibility Wind Dir Wind Speed Gust Speed Precip Events Conditions
12:52 AM 53.1 °F 48.0 °F 83% 29.97 in 10.0 mi WNW 6.9 mph - N/A   Clear
1:52 AM 52.0 °F 48.0 °F 86% 29.97 in 10.0 mi WNW 5.8 mph - N/A   Clear
2:52 AM 51.1 °F 46.9 °F 86% 29.97 in 10.0 mi WNW 3.5 mph - N/A   Clear
3:52 AM 48.9 °F 46.0 °F 90% 29.98 in 10.0 mi West 3.5 mph - N/A   Clear
4:52 AM 48.9 °F 46.0 °F 90% 29.99 in 10.0 mi Calm Calm - N/A   Clear
5:52 AM 48.0 °F 45.0 °F 89% 29.99 in 10.0 mi SW 3.5 mph - N/A   Clear
6:52 AM 48.0 °F 45.0 °F 89% 30.00 in 10.0 mi Calm Calm - N/A   Clear
7:52 AM 53.1 °F 48.9 °F 86% 30.01 in 10.0 mi Calm Calm - N/A   Clear
8:52 AM 61.0 °F 53.1 °F 75% 30.01 in 10.0 mi SSW 3.5 mph - N/A   Clear
9:52 AM 69.1 °F 52.0 °F 54% 29.99 in 10.0 mi South 4.6 mph - N/A   Clear
10:52 AM 73.9 °F 46.0 °F 37% 29.99 in 10.0 mi South 5.8 mph - N/A   Clear
11:52 AM 75.9 °F 44.1 °F 32% 29.96 in 10.0 mi SSE 8.1 mph - N/A   Clear
12:52 PM 79.0 °F 45.0 °F 30% 29.94 in 10.0 mi ESE 10.4 mph - N/A   Clear
1:52 PM 80.1 °F 46.0 °F 30% 29.91 in 10.0 mi SE 12.7 mph 18.4 mph N/A   Clear
2:52 PM 81.0 °F 44.1 °F 27% 29.89 in 10.0 mi SSE 12.7 mph - N/A   Clear
3:52 PM 81.0 °F 44.1 °F 27% 29.86 in 10.0 mi SE 12.7 mph - N/A   Clear
4:52 PM 82.0 °F 45.0 °F 27% 29.83 in 10.0 mi SSE 16.1 mph 20.7 mph N/A   Clear
5:52 PM 80.1 °F 45.0 °F 29% 29.83 in 10.0 mi SSE 10.4 mph - N/A   Overcast
6:52 PM 78.1 °F 48.0 °F 35% 29.87 in 10.0 mi Calm Calm - N/A   Overcast
7:52 PM 71.1 °F 51.1 °F 49% 29.85 in 10.0 mi East 5.8 mph - N/A   Mostly Cloudy
8:52 PM 70.0 °F 51.1 °F 51% 29.84 in 10.0 mi East 6.9 mph - N/A   Scattered Clouds
9:52 PM 66.0 °F 51.1 °F 59% 29.84 in 10.0 mi ESE 6.9 mph - N/A   Scattered Clouds
10:52 PM 64.0 °F 52.0 °F 65% 29.83 in 10.0 mi ESE 8.1 mph - N/A   Partly Cloudy
11:52 PM 61.0 °F 53.1 °F 75% 29.83 in 10.0 mi SSE 5.8 mph - N/A   Mostly Cloudy